GFSNGP_925_temp_084.txt.gz
Temp
13 15 15 14 12 14 15 14 16 18 18 17 17 17 14 12 10 8 6 4 4 3 3 2 3 3 3 4 5 7 8 8 8 9 10 10 10 10 11 12 11 11 11 10
12 14 15 14 16 15 14 12 14 15 18 14 14 16 13 11 9 7 5 4 3 3 2 2 1 2 2 3 3 4 5 5 6 7 8 7 7 8 8 8 7 8 7 6
11 14 14 13 17 17 17 15 18 17 15 14 11 9 9 8 7 5 4 3 2 1 1 1 0 0 0 1 2 3 4 4 5 5 4 4 4 3 3 3 4 3 3 3
10 12 10 16 19 19 18 16 14 16 14 12 8 5 4 4 4 3 2 2 1 1 0 -0 -1 -1 -0 -0 0 1 2 3 3 3 3 2 2 1 1 1 0 -0 -0 1
9 10 11 17 18 18 17 11 13 14 14 11 8 6 3 2 1 1 1 0 -1 -1 -1 -1 -1 -1 -1 -1 -1 -0 -0 0 2 2 2 2 1 1 -0 -1 -1 -2 -2 -2
9 8 11 10 14 17 17 11 11 12 10 9 10 9 3 1 0 -0 -1 -1 -1 -1 -1 -1 -1 -1 -1 -2 -1 -1 -1 -1 -0 0 1 1 1 1 0 -0 -1 -2 -3 -4
9 9 10 8 12 16 14 9 9 9 6 4 4 2 0 -0 -0 -1 -1 -1 -1 -1 -1 -1 -1 -2 -2 -2 -2 -2 -1 -1 -1 -1 -0 -0 0 1 -0 -1 -1 -2 -3 -4
10 10 10 8 11 10 7 7 8 6 4 2 1 0 -0 -0 -0 -0 -0 -1 -1 -1 -1 -1 -1 -1 -2 -2 -2 -2 -2 -2 -2 -1 -1 -1 -1 -1 -0 -1 -2 -2 -3 -3
7 7 6 6 5 5 6 5 5 4 3 2 1 0 -0 -1 -1 -1 -0 -0 -1 -1 -0 1 0 -0 -1 -2 -2 -2 -2 -3 -3 -3 -3 -3 -3 -2 -2 -2 -2 -3 -3 -4
7 6 5 5 5 4 3 3 4 3 2 1 -0 -1 -1 -2 -2 -2 -2 -1 -1 -0 0 0 1 1 1 0 -1 -1 -3 -3 -5 -6 -6 -5 -5 -5 -5 -4 -4 -4 -4 -5
6 5 5 4 3 4 3 3 2 1 1 1 0 -1 -1 -2 -2 -3 -3 -3 -3 -3 -3 -3 -4 -4 -2 -0 -1 -1 -2 -3 -4 -6 -7 -7 -7 -7 -7 -7 -6 -6 -7 -6
5 4 4 2 2 3 2 2 2 2 1 -0 -1 -2 -2 -3 -4 -4 -4 -4 -4 -5 -5 -5 -5 -5 -5 -4 -2 -2 -2 -3 -3 -4 -5 -7 -8 -8 -8 -8 -8 -8 -8 -8
3 2 2 1 2 2 1 1 0 1 0 -1 -2 -2 -3 -4 -4 -5 -5 -6 -6 -6 -6 -7 -6 -6 -5 -5 -4 -4 -4 -4 -4 -4 -4 -4 -5 -7 -9 -9 -9 -9 -9 -9
2 2 2 2 1 1 2 2 2 2 1 1 -0 -1 -2 -3 -4 -5 -5 -6 -7 -7 -7 -8 -8 -7 -6 -6 -5 -5 -5 -5 -5 -5 -5 -5 -5 -5 -6 -6 -8 -9 -9 -9
2 2 2 2 3 4 4 3 3 1 0 -1 -2 -2 -3 -4 -5 -6 -6 -6 -7 -8 -9 -9 -9 -8 -7 -6 -6 -6 -6 -6 -6 -6 -6 -6 -5 -6 -6 -6 -7 -8 -9 -9
1 2 3 3 4 4 4 3 1 -0 -1 -2 -3 -4 -5 -6 -7 -8 -8 -8 -8 -9 -9 -10 -10 -9 -7 -6 -5 -6 -6 -6 -5 -5 -5 -5 -5 -6 -6 -7 -8 -10 -11 -11
3 2 2 3 2 1 0 0 -1 -2 -3 -4 -5 -5 -5 -6 -8 -9 -10 -10 -10 -10 -10 -10 -10 -9 -8 -7 -5 -5 -5 -6 -5 -6 -6 -6 -6 -6 -7 -7 -9 -11 -12 -11
1 0 0 1 0 -1 -2 -4 -5 -6 -6 -7 -8 -8 -9 -9 -9 -10 -10 -10 -10 -11 -11 -10 -10 -10 -9 -7 -7 -6 -6 -6 -6 -7 -7 -7 -7 -7 -8 -8 -8 -9 -11 -11
-1 -1 -2 -2 -2 -3 -5 -6 -7 -8 -8 -9 -9 -10 -11 -10 -10 -10 -9 -9 -8 -10 -11 -11 -10 -9 -10 -8 -8 -7 -7 -7 -7 -8 -8 -8 -8 -9 -9 -9 -9 -10 -10 -11
-4 -4 -5 -6 -6 -6 -7 -8 -8 -9 -10 -10 -10 -11 -11 -11 -11 -10 -11 -12 -12 -12 -11 -11 -10 -10 -10 -9 -8 -8 -8 -8 -8 -9 -9 -9 -9 -10 -10 -10 -10 -11 -11 -12
-6 -6 -7 -7 -8 -8 -9 -9 -10 -10 -11 -10 -11 -11 -11 -11 -11 -10 -9 -9 -11 -11 -11 -11 -13 -13 -11 -10 -9 -10 -10 -9 -9 -10 -10 -10 -10 -10 -11 -11 -11 -12 -12 -12
-7 -7 -7 -8 -8 -8 -9 -10 -11 -11 -11 -11 -11 -11 -11 -10 -10 -10 -10 -10 -11 -11 -11 -13 -14 -13 -13 -11 -11 -11 -11 -11 -11 -11 -11 -11 -11 -11 -11 -12 -12 -13 -13 -13
-7 -7 -7 -7 -8 -9 -10 -10 -10 -11 -11 -10 -10 -10 -9 -9 -9 -8 -9 -11 -11 -12 -12 -13 -14 -14 -13 -13 -12 -12 -12 -12 -12 -12 -12 -13 -13 -13 -13 -13 -14 -14 -14 -14
-6 -6 -7 -8 -9 -7 -7 -8 -8 -10 -10 -11 -10 -10 -10 -9 -9 -9 -11 -12 -13 -13 -13 -13 -14 -14 -13 -13 -13 -13 -13 -13 -13 -13 -13 -13 -14 -14 -14 -14 -14 -15 -15 -15
-6 -7 -7 -6 -5 -4 -5 -6 -7 -7 -8 -7 -8 -9 -10 -10 -10 -11 -11 -12 -12 -13 -12 -13 -13 -14 -14 -13 -13 -13 -14 -14 -14 -14 -14 -14 -14 -14 -14 -14 -15 -15 -15 -16
-5 -4 -4 -5 -5 -4 -4 -5 -5 -5 -6 -6 -7 -8 -9 -10 -10 -11 -11 -11 -12 -12 -12 -13 -13 -14 -13 -14 -13 -14 -14 -14 -14 -14 -15 -15 -15 -15 -15 -15 -15 -15 -16 -16
-5 -5 -4 -4 -5 -5 -7 -7 -7 -7 -7 -8 -7 -8 -9 -10 -10 -11 -11 -11 -12 -12 -12 -12 -12 -13 -13 -14 -14 -14 -14 -14 -14 -14 -14 -15 -15 -15 -15 -15 -15 -16 -16 -17

GFSNGP_925_temp_087.txt.gz
Temp
10 11 12 12 11 13 12 11 11 13 14 13 13 11 10 9 8 6 5 4 3 3 2 2 2 2 2 3 4 6 8 10 9 10 11 12 12 12 12 12 11 10 10 10
8 10 11 12 13 14 14 13 13 12 11 12 11 11 10 8 7 5 4 3 2 2 2 1 1 1 1 1 2 4 5 6 6 8 7 8 8 8 9 8 8 8 7 7
8 10 11 10 13 13 14 14 13 12 11 11 8 7 6 6 5 3 3 2 1 1 1 0 -0 -0 -0 0 1 2 3 4 4 4 4 4 4 3 3 3 4 3 4 4
7 8 8 13 14 14 12 10 10 11 9 8 5 3 3 2 2 2 1 1 0 0 -1 -1 -1 -1 -0 -0 0 0 1 2 2 2 2 1 1 1 0 -0 0 0 -0 1
7 7 10 13 9 8 11 9 10 10 9 7 5 3 2 1 1 0 0 0 -1 -1 -1 -1 -1 -1 -1 -1 -1 -0 -0 0 1 1 1 0 -0 -1 -1 -2 -2 -2 -1 -1
8 8 8 9 7 8 8 10 8 7 6 5 7 9 2 1 0 -0 -1 -1 -1 -1 -1 -2 -2 -1 -1 -1 -1 -1 -1 -1 -0 -0 -0 -0 -1 -1 -2 -3 -3 -3 -3 -3
8 7 9 6 6 9 10 8 6 5 3 2 2 1 0 -0 -0 -1 -1 -1 -1 -1 -1 -2 -2 -2 -2 -2 -2 -2 -2 -1 -1 -1 -1 -1 -1 -2 -2 -3 -4 -4 -4 -4
9 8 8 5 7 7 6 5 5 4 2 1 0 0 -1 -1 -1 -0 -0 -1 -1 -1 -1 -1 -1 -2 -2 -2 -2 -2 -3 -3 -2 -2 -2 -2 -1 -2 -2 -3 -3 -4 -4 -5
6 6 4 4 3 3 4 4 4 3 2 1 -0 -1 -2 -2 -2 -2 -1 -1 -2 -1 -1 -2 -1 -2 -2 -3 -3 -3 -3 -4 -4 -4 -3 -3 -3 -3 -3 -3 -4 -5 -5 -5
6 4 3 3 3 2 2 2 2 1 0 -1 -2 -3 -3 -3 -3 -3 -3 -2 -3 -3 -3 -4 -3 -3 -2 -2 -3 -4 -5 -5 -6 -5 -5 -5 -5 -5 -5 -5 -5 -5 -6 -6
5 4 3 3 3 3 2 1 0 0 0 -1 -2 -2 -2 -3 -4 -4 -4 -4 -4 -5 -5 -5 -5 -4 -3 -2 -2 -4 -4 -5 -6 -7 -7 -7 -7 -7 -7 -6 -6 -7 -7 -7
4 3 3 2 2 1 1 1 1 0 -1 -2 -2 -3 -4 -4 -5 -5 -5 -6 -6 -6 -6 -6 -6 -5 -5 -3 -3 -3 -4 -4 -5 -6 -7 -8 -8 -8 -8 -7 -7 -7 -8 -7
2 2 1 1 1 1 0 0 -0 -1 -1 -2 -3 -3 -4 -5 -5 -5 -6 -6 -7 -7 -7 -7 -7 -6 -5 -5 -4 -4 -5 -5 -5 -5 -6 -7 -8 -9 -9 -9 -9 -8 -8 -7
2 2 1 1 1 1 2 2 1 0 -1 -2 -2 -3 -4 -5 -5 -6 -6 -7 -8 -8 -8 -8 -7 -7 -6 -5 -5 -5 -5 -5 -5 -5 -5 -5 -6 -7 -8 -9 -10 -9 -8 -8
1 1 1 2 2 2 3 1 -0 -2 -2 -3 -4 -5 -6 -6 -7 -8 -7 -8 -8 -9 -9 -8 -8 -8 -7 -6 -6 -6 -6 -5 -5 -5 -5 -6 -6 -6 -8 -9 -10 -10 -9 -9
1 2 3 3 2 1 1 -0 -2 -3 -3 -4 -5 -6 -7 -8 -9 -9 -9 -9 -9 -10 -10 -10 -9 -8 -7 -6 -6 -5 -6 -6 -6 -6 -6 -6 -6 -7 -8 -9 -10 -10 -10 -10
2 0 1 0 -1 -2 -3 -3 -3 -5 -6 -7 -7 -6 -7 -8 -9 -10 -10 -10 -10 -10 -10 -10 -10 -8 -7 -6 -6 -6 -6 -6 -6 -6 -6 -7 -7 -7 -8 -9 -10 -10 -11 -10
-1 -2 -2 -1 -3 -4 -5 -6 -7 -7 -8 -9 -9 -9 -9 -10 -10 -10 -10 -10 -10 -10 -10 -10 -10 -9 -8 -7 -6 -6 -7 -7 -7 -7 -7 -7 -8 -8 -9 -10 -10 -10 -11 -11
-3 -4 -4 -4 -5 -6 -7 -8 -9 -9 -9 -9 -10 -11 -10 -10 -10 -10 -10 -10 -11 -11 -11 -10 -10 -9 -9 -8 -8 -7 -7 -8 -8 -8 -8 -8 -9 -9 -10 -10 -10 -11 -11 -12
-6 -7 -7 -7 -7 -8 -9 -9 -10 -10 -10 -10 -11 -11 -11 -11 -11 -11 -10 -11 -12 -12 -11 -11 -10 -10 -10 -9 -9 -9 -9 -9 -9 -9 -9 -10 -10 -10 -10 -11 -11 -12 -12 -12
-8 -8 -9 -9 -9 -9 -9 -10 -10 -10 -10 -10 -11 -11 -11 -10 -10 -10 -12 -11 -11 -11 -12 -12 -11 -11 -11 -11 -10 -10 -10 -10 -10 -10 -10 -10 -11 -11 -11 -11 -12 -12 -13 -13
-8 -8 -8 -8 -9 -10 -10 -10 -11 -11 -11 -11 -11 -11 -11 -10 -10 -11 -11 -11 -11 -12 -12 -12 -12 -12 -12 -12 -12 -11 -11 -12 -12 -12 -12 -12 -12 -12 -12 -12 -13 -13 -13 -14
-7 -8 -8 -8 -9 -10 -10 -10 -11 -10 -10 -10 -10 -10 -10 -9 -9 -11 -12 -12 -12 -12 -12 -12 -13 -13 -13 -13 -13 -13 -13 -13 -13 -13 -13 -13 -13 -13 -13 -14 -14 -14 -14 -14
-7 -7 -8 -8 -9 -10 -10 -10 -10 -10 -10 -10 -9 -9 -9 -10 -10 -11 -11 -11 -12 -13 -13 -13 -13 -13 -13 -13 -13 -13 -13 -13 -13 -13 -14 -14 -14 -14 -14 -14 -14 -15 -15 -15
-7 -7 -7 -8 -8 -7 -7 -7 -8 -8 -8 -9 -9 -9 -9 -10 -9 -11 -11 -12 -12 -12 -13 -13 -13 -13 -13 -13 -14 -14 -14 -14 -14 -14 -14 -14 -15 -15 -15 -15 -15 -15 -15 -16
-7 -7 -6 -5 -5 -5 -6 -6 -7 -7 -8 -7 -8 -9 -9 -9 -10 -10 -11 -11 -12 -12 -12 -13 -13 -13 -13 -13 -13 -14 -14 -14 -14 -14 -15 -15 -15 -15 -15 -15 -15 -15 -16 -16
-5 -4 -5 -5 -5 -6 -6 -7 -8 -8 -8 -9 -9 -9 -9 -10 -10 -10 -11 -11 -11 -12 -12 -12 -12 -13 -13 -13 -13 -13 -14 -14 -14 -14 -15 -15 -15 -15 -15 -16 -16 -16 -16 -16

GFSNGP_925_temp_090.txt.gz
Temp
8 9 9 9 10 11 11 11 10 12 11 11 11 10 9 8 6 5 4 3 2 2 2 1 1 1 1 2 3 5 7 8 9 12 13 13 13 12 12 12 11 11 11 11
7 9 9 9 10 11 12 13 13 12 12 8 8 8 7 6 5 4 3 2 1 1 1 0 0 0 1 1 2 4 4 4 5 7 9 9 10 9 9 9 8 8 7 7
7 9 8 8 9 11 12 13 12 12 11 8 6 5 4 4 3 3 2 1 1 0 -0 -1 -1 -0 0 1 1 1 3 3 2 3 3 3 4 5 5 4 4 4 4 5
6 7 6 10 9 11 10 9 9 8 8 6 4 3 2 2 2 1 1 0 0 -0 -1 -1 -1 -1 -0 -0 0 1 1 1 1 1 0 0 0 0 0 1 1 1 1 1
5 7 9 11 8 7 7 8 6 6 8 5 3 3 1 1 1 0 0 0 -1 -1 -1 -2 -2 -2 -2 -1 -1 -1 -1 -1 -0 0 -0 -1 -2 -2 -2 -2 -2 -1 -1 -1
7 7 6 7 6 6 6 8 5 5 4 6 4 7 1 0 0 -0 -1 -1 -1 -1 -1 -2 -2 -2 -2 -2 -2 -2 -2 -2 -1 -1 -1 -1 -2 -3 -3 -3 -3 -3 -3 -2
6 7 8 5 5 5 9 6 4 3 2 3 2 1 0 0 -0 -1 -1 -1 -1 -1 -2 -2 -2 -2 -2 -2 -3 -3 -3 -2 -2 -2 -2 -2 -2 -3 -3 -4 -3 -4 -4 -4
7 7 7 4 5 5 5 3 3 2 1 1 0 -0 -1 -1 -1 -1 -1 -1 -2 -3 -3 -2 -2 -2 -2 -3 -3 -3 -3 -3 -3 -3 -2 -2 -3 -3 -3 -4 -4 -4 -5 -5
6 5 4 3 3 3 3 3 2 1 0 -0 -1 -3 -3 -4 -4 -3 -2 -3 -3 -3 -3 -4 -3 -3 -3 -3 -4 -4 -4 -5 -4 -3 -3 -3 -3 -4 -4 -4 -5 -5 -5 -5
5 3 3 3 2 2 1 1 0 -0 -2 -3 -4 -4 -5 -5 -5 -5 -4 -4 -4 -4 -4 -4 -4 -3 -3 -4 -5 -5 -5 -6 -6 -5 -5 -5 -5 -5 -5 -5 -5 -6 -6 -6
4 3 2 2 1 2 1 -0 -0 -1 -1 -2 -3 -4 -4 -5 -5 -5 -6 -6 -6 -6 -6 -6 -5 -4 -3 -3 -4 -5 -6 -6 -7 -7 -7 -7 -7 -7 -7 -6 -6 -7 -7 -6
1 2 2 1 1 1 1 -0 -1 -1 -2 -3 -4 -5 -6 -6 -6 -6 -6 -7 -7 -7 -7 -7 -6 -5 -5 -4 -4 -4 -5 -6 -7 -7 -8 -8 -8 -7 -7 -7 -7 -7 -6 -6
0 1 0 1 -0 0 -1 -1 -2 -3 -3 -3 -4 -5 -5 -6 -6 -6 -7 -8 -8 -8 -8 -7 -6 -6 -5 -5 -4 -4 -5 -5 -6 -6 -7 -8 -8 -9 -9 -8 -7 -7 -7 -6
2 1 1 1 -0 1 0 -1 -1 -2 -2 -3 -4 -5 -6 -6 -6 -7 -8 -8 -9 -8 -8 -8 -7 -7 -6 -6 -6 -5 -5 -5 -5 -6 -6 -7 -8 -9 -9 -9 -9 -9 -8 -8
1 1 2 1 1 1 -0 -2 -2 -3 -4 -5 -5 -6 -7 -7 -8 -8 -8 -9 -9 -9 -9 -9 -8 -8 -6 -6 -6 -6 -6 -5 -5 -6 -6 -6 -8 -9 -9 -9 -9 -9 -9 -9
1 2 1 0 1 -0 -1 -2 -3 -4 -5 -5 -6 -7 -8 -9 -9 -10 -10 -10 -10 -11 -10 -9 -9 -9 -7 -6 -6 -6 -6 -6 -6 -6 -6 -7 -8 -9 -9 -10 -10 -10 -10 -10
1 1 -1 -2 -2 -3 -3 -4 -5 -6 -6 -6 -7 -8 -8 -9 -10 -10 -11 -10 -10 -10 -10 -10 -10 -8 -7 -6 -6 -6 -6 -6 -6 -6 -7 -7 -8 -9 -10 -11 -11 -10 -11 -11
-3 -3 -2 -3 -4 -5 -6 -6 -7 -8 -9 -9 -9 -9 -9 -10 -11 -11 -11 -10 -10 -10 -10 -10 -10 -9 -8 -7 -7 -7 -7 -7 -7 -7 -8 -8 -9 -9 -10 -10 -11 -11 -12 -12
-5 -5 -5 -5 -6 -7 -8 -9 -10 -10 -10 -9 -10 -11 -10 -10 -10 -10 -10 -11 -11 -11 -11 -11 -10 -9 -9 -8 -8 -8 -8 -8 -8 -8 -9 -9 -9 -10 -10 -10 -11 -11 -12 -12
-7 -7 -8 -8 -8 -9 -10 -10 -10 -10 -10 -10 -11 -11 -11 -11 -11 -11 -10 -11 -12 -12 -12 -11 -11 -11 -10 -10 -10 -9 -9 -9 -9 -10 -10 -10 -10 -10 -11 -11 -12 -12 -12 -13
-9 -9 -10 -10 -10 -10 -10 -10 -10 -10 -10 -10 -10 -11 -11 -11 -11 -11 -11 -11 -12 -11 -11 -12 -12 -12 -12 -11 -11 -11 -10 -10 -10 -11 -11 -11 -11 -11 -12 -12 -12 -13 -13 -13
-10 -10 -10 -10 -10 -11 -10 -10 -10 -10 -10 -10 -10 -10 -10 -10 -11 -11 -11 -11 -11 -12 -12 -12 -12 -13 -13 -12 -12 -12 -12 -12 -12 -12 -12 -12 -12 -12 -13 -13 -13 -13 -14 -14
-9 -9 -9 -10 -10 -10 -10 -10 -10 -10 -10 -10 -10 -10 -10 -10 -10 -11 -12 -12 -12 -12 -12 -12 -13 -13 -13 -13 -13 -13 -13 -13 -13 -13 -13 -13 -13 -13 -14 -14 -14 -14 -14 -15
-8 -8 -8 -9 -10 -10 -10 -10 -10 -9 -9 -9 -9 -10 -9 -9 -10 -10 -11 -11 -12 -12 -13 -13 -13 -13 -13 -13 -13 -13 -14 -14 -14 -14 -14 -14 -14 -14 -14 -14 -15 -15 -15 -15
-7 -8 -9 -9 -9 -9 -8 -8 -9 -9 -9 -9 -9 -9 -9 -10 -10 -10 -11 -11 -12 -12 -12 -13 -13 -13 -13 -14 -14 -14 -14 -14 -14 -14 -14 -14 -15 -15 -15 -15 -15 -15 -15 -15
-7 -7 -7 -7 -8 -7 -7 -8 -8 -8 -9 -9 -9 -9 -10 -10 -10 -10 -11 -11 -11 -12 -12 -12 -13 -13 -13 -13 -14 -14 -14 -14 -14 -14 -15 -15 -15 -15 -15 -15 -15 -16 -16 -16
-7 -6 -6 -6 -7 -7 -7 -8 -8 -9 -9 -9 -9 -9 -10 -10 -10 -10 -11 -11 -11 -12 -12 -12 -12 -13 -13 -13 -13 -14 -14 -14 -14 -14 -15 -15 -15 -15 -15 -16 -16 -16 -16 -16

GFSNGP_925_temp_093.txt.gz
Temp
8 8 8 8 8 8 9 9 8 10 10 12 9 7 6 6 6 4 3 2 2 1 1 0 0 1 1 2 3 4 4 6 8 8 11 13 13 13 12 12 12 12 11 11
7 8 8 8 8 9 9 9 10 11 11 9 7 6 4 4 4 3 2 1 1 1 0 0 -0 -0 0 1 2 2 2 2 3 4 4 7 8 9 9 9 9 10 9 9
6 8 7 7 8 8 9 10 11 10 11 7 6 4 3 3 2 2 1 1 0 0 -0 -1 -1 -1 -1 -0 0 1 1 1 0 1 1 1 3 3 4 5 5 6 5 6
5 7 5 9 7 6 8 8 8 9 7 6 4 2 2 1 1 1 1 -0 -0 -1 -1 -2 -2 -1 -1 -1 -1 -1 -1 0 0 0 -0 -0 -0 -0 -0 1 1 1 2 2
3 5 8 9 6 6 6 7 5 6 5 4 2 3 1 1 0 -0 -0 -0 -1 -1 -2 -2 -2 -2 -2 -2 -2 -2 -2 -2 -1 -1 -0 -1 -2 -2 -2 -2 -2 -2 -2 -1
6 4 5 5 5 6 5 7 4 4 4 5 4 6 1 0 0 -0 -1 -1 -1 -2 -2 -2 -2 -3 -3 -3 -3 -3 -3 -3 -2 -2 -2 -2 -2 -2 -2 -2 -3 -3 -3 -3
6 6 6 4 4 4 7 5 2 2 2 3 2 1 0 -0 -0 -1 -2 -2 -3 -3 -3 -2 -3 -3 -4 -4 -4 -4 -3 -3 -2 -3 -3 -3 -3 -3 -3 -3 -3 -3 -4 -4
7 7 7 3 4 4 4 2 1 1 0 0 -0 -1 -2 -2 -2 -2 -3 -3 -4 -3 -3 -3 -3 -3 -4 -4 -5 -4 -4 -4 -4 -3 -3 -3 -4 -4 -4 -4 -4 -4 -4 -4
4 4 3 2 2 2 2 2 1 1 -0 -1 -2 -4 -5 -4 -5 -5 -4 -4 -4 -4 -4 -4 -4 -4 -4 -5 -5 -5 -4 -5 -5 -4 -4 -4 -4 -4 -5 -5 -5 -5 -5 -5
4 3 2 2 1 1 0 -0 -1 -1 -2 -3 -4 -5 -6 -6 -6 -6 -6 -6 -5 -5 -5 -5 -5 -4 -4 -5 -5 -5 -5 -6 -6 -6 -5 -5 -5 -5 -5 -6 -6 -6 -5 -5
3 3 2 1 1 0 -0 -1 -1 -2 -2 -3 -4 -5 -5 -5 -6 -7 -7 -7 -7 -7 -7 -7 -6 -5 -4 -4 -5 -5 -6 -6 -6 -7 -7 -6 -6 -6 -6 -6 -6 -6 -6 -5
2 2 2 1 0 0 -0 -1 -2 -2 -3 -4 -5 -6 -6 -7 -7 -7 -8 -8 -8 -8 -8 -7 -6 -6 -5 -5 -4 -5 -5 -6 -7 -7 -7 -7 -7 -6 -6 -6 -6 -6 -6 -5
1 1 1 0 -0 -1 -1 -2 -3 -3 -3 -4 -5 -6 -6 -7 -7 -7 -8 -8 -9 -9 -8 -8 -7 -7 -6 -5 -5 -5 -5 -5 -6 -7 -8 -8 -8 -8 -8 -7 -7 -7 -6 -6
1 1 1 0 -0 -1 -1 -1 -2 -3 -4 -5 -6 -6 -6 -7 -7 -8 -9 -9 -9 -9 -9 -8 -7 -7 -7 -6 -6 -6 -6 -5 -6 -7 -7 -8 -8 -8 -8 -8 -9 -8 -8 -8
1 1 0 0 -0 -1 -2 -3 -3 -4 -5 -6 -6 -7 -7 -8 -8 -9 -9 -9 -10 -10 -9 -9 -8 -8 -7 -6 -6 -6 -6 -6 -6 -6 -7 -8 -8 -8 -9 -9 -9 -9 -9 -9
1 1 0 -0 -0 -2 -3 -3 -4 -5 -5 -6 -7 -8 -9 -9 -10 -10 -10 -10 -11 -11 -10 -10 -9 -8 -7 -6 -6 -6 -6 -6 -6 -6 -7 -8 -8 -9 -9 -10 -10 -10 -10 -10
-1 -1 -1 -2 -2 -3 -4 -4 -5 -5 -6 -7 -8 -8 -9 -10 -10 -11 -11 -11 -10 -10 -10 -10 -10 -8 -7 -7 -7 -7 -7 -7 -7 -7 -7 -8 -9 -9 -10 -10 -11 -11 -11 -11
-3 -2 -2 -3 -4 -5 -5 -6 -7 -7 -8 -9 -9 -9 -10 -10 -11 -11 -11 -11 -10 -10 -11 -10 -10 -9 -8 -8 -7 -7 -7 -7 -8 -8 -8 -8 -9 -10 -10 -11 -11 -11 -12 -12
-4 -4 -4 -5 -6 -7 -8 -9 -10 -10 -10 -9 -10 -11 -11 -11 -11 -11 -11 -11 -11 -11 -12 -11 -11 -10 -9 -9 -9 -8 -8 -8 -8 -9 -9 -9 -9 -10 -10 -11 -11 -12 -12 -12
-7 -7 -7 -8 -8 -9 -10 -10 -10 -10 -10 -10 -11 -11 -11 -11 -11 -11 -11 -12 -12 -12 -12 -12 -11 -11 -11 -10 -10 -10 -9 -9 -9 -10 -10 -10 -10 -10 -11 -11 -12 -12 -12 -13
-9 -9 -10 -10 -10 -10 -10 -10 -10 -11 -11 -11 -10 -11 -11 -11 -11 -11 -11 -11 -11 -12 -12 -12 -12 -12 -12 -12 -11 -11 -11 -11 -11 -11 -11 -11 -11 -11 -12 -12 -12 -13 -13 -13
-11 -11 -11 -11 -11 -11 -10 -10 -10 -10 -10 -10 -10 -11 -11 -11 -10 -10 -10 -11 -11 -12 -12 -12 -13 -13 -13 -13 -13 -12 -12 -12 -12 -12 -12 -12 -12 -12 -12 -13 -13 -13 -14 -14
-10 -10 -10 -10 -10 -10 -11 -10 -10 -10 -10 -10 -10 -10 -9 -10 -10 -11 -11 -11 -11 -12 -13 -13 -13 -13 -14 -13 -13 -13 -13 -13 -14 -14 -14 -14 -14 -14 -14 -14 -14 -14 -14 -14
-9 -9 -10 -10 -10 -10 -10 -10 -10 -9 -9 -9 -9 -10 -10 -10 -10 -10 -10 -11 -11 -12 -12 -13 -13 -13 -13 -14 -14 -14 -14 -14 -14 -14 -14 -14 -14 -15 -15 -15 -15 -15 -15 -15
-9 -9 -9 -10 -10 -9 -9 -9 -9 -9 -9 -9 -9 -9 -9 -10 -10 -10 -10 -11 -11 -12 -12 -12 -13 -13 -13 -13 -14 -14 -14 -14 -14 -15 -15 -15 -15 -15 -15 -15 -15 -15 -15 -16
-8 -9 -8 -8 -7 -8 -7 -8 -8 -8 -9 -9 -9 -9 -9 -10 -10 -11 -11 -11 -11 -12 -12 -12 -12 -13 -13 -13 -13 -14 -14 -14 -14 -14 -15 -15 -15 -15 -15 -15 -15 -16 -16 -16
-7 -7 -7 -7 -7 -6 -7 -8 -8 -9 -9 -9 -9 -10 -10 -10 -10 -11 -11 -11 -11 -11 -12 -12 -12 -12 -12 -13 -13 -13 -14 -14 -14 -14 -15 -15 -15 -15 -15 -16 -16 -16 -16 -16

GFSNGP_925_temp_096.txt.gz
Temp
8 8 7 7 7 7 7 7 5 9 9 10 10 8 6 4 4 3 3 2 1 1 1 -0 -0 -0 -0 0 1 2 2 2 2 4 8 9 12 13 13 12 11 11 11 10
6 7 7 7 7 7 7 8 8 8 8 10 7 6 4 3 3 2 2 1 1 1 0 -0 -1 -1 -1 -1 -0 0 1 1 1 2 3 3 3 9 10 9 9 9 9 9
6 7 7 7 8 8 7 8 8 8 9 8 5 4 2 2 2 1 1 0 -0 -0 -1 -1 -1 -1 -1 -1 -1 -1 -1 -0 0 1 1 2 1 2 4 4 5 5 5 5
4 6 4 8 7 7 6 7 5 7 8 8 4 2 1 1 1 1 0 -0 -1 -1 -1 -2 -2 -2 -2 -2 -2 -2 -2 -1 -1 -0 0 2 0 -2 -1 0 0 0 0 0
2 4 7 7 6 5 5 6 4 5 5 3 2 1 1 1 0 -0 -0 -1 -1 -2 -2 -2 -3 -3 -3 -3 -3 -3 -3 -3 -2 -1 -1 -1 -1 -1 -2 -2 -2 -2 -2 -2
5 3 3 4 5 6 5 6 3 2 3 3 3 5 1 0 -0 -1 -2 -2 -3 -3 -2 -3 -3 -4 -4 -4 -4 -4 -4 -4 -3 -3 -3 -2 -3 -3 -3 -2 -3 -2 -3 -3
4 4 4 3 4 4 6 4 2 1 1 3 1 1 -0 -1 -2 -3 -3 -3 -3 -3 -3 -4 -4 -4 -5 -5 -5 -5 -4 -4 -4 -4 -4 -4 -4 -4 -4 -4 -4 -4 -4 -4
6 5 5 3 4 3 2 2 1 0 -0 -0 -1 -2 -3 -4 -4 -4 -4 -4 -4 -4 -4 -4 -4 -5 -5 -5 -5 -5 -4 -4 -5 -5 -4 -4 -4 -4 -4 -4 -4 -4 -4 -5
4 3 3 2 2 1 1 1 0 -1 -1 -2 -3 -5 -5 -5 -6 -6 -6 -6 -5 -5 -5 -5 -4 -5 -5 -5 -5 -5 -5 -6 -5 -5 -5 -5 -4 -5 -5 -5 -5 -5 -5 -5
4 3 2 2 1 0 -1 -1 -2 -2 -3 -4 -5 -6 -7 -8 -8 -8 -7 -7 -6 -6 -6 -6 -6 -5 -4 -5 -5 -5 -6 -7 -7 -6 -6 -5 -6 -5 -5 -5 -5 -5 -5 -5
3 2 2 1 0 -0 -1 -2 -2 -3 -3 -4 -5 -6 -6 -7 -8 -8 -8 -8 -8 -8 -8 -7 -7 -6 -5 -5 -5 -5 -6 -6 -7 -7 -7 -6 -6 -6 -6 -6 -5 -5 -5 -5
1 2 1 1 0 -0 -1 -2 -2 -3 -4 -5 -5 -6 -7 -7 -7 -8 -9 -9 -9 -9 -9 -8 -7 -7 -6 -5 -5 -5 -6 -6 -7 -7 -7 -7 -7 -7 -7 -6 -6 -5 -5 -5
-1 0 -0 -0 -1 -1 -2 -3 -3 -4 -4 -5 -6 -6 -7 -7 -8 -8 -9 -9 -9 -10 -9 -8 -7 -7 -6 -6 -5 -5 -6 -6 -7 -7 -7 -8 -7 -8 -8 -7 -7 -7 -6 -7
0 0 -0 -0 -1 -1 -1 -2 -3 -5 -5 -6 -6 -6 -7 -7 -8 -8 -9 -9 -9 -9 -9 -8 -7 -7 -7 -6 -6 -6 -6 -6 -6 -7 -8 -8 -8 -8 -8 -8 -9 -9 -8 -9
1 0 -0 -1 -2 -2 -3 -3 -3 -4 -5 -6 -7 -7 -7 -8 -9 -10 -10 -10 -10 -10 -10 -9 -8 -8 -7 -6 -6 -6 -6 -6 -7 -7 -8 -8 -8 -9 -9 -9 -10 -10 -9 -9
1 0 -0 -1 -2 -3 -3 -4 -4 -5 -6 -6 -7 -8 -9 -10 -11 -11 -11 -11 -11 -12 -11 -10 -10 -9 -7 -7 -6 -6 -6 -7 -7 -7 -8 -8 -8 -9 -10 -10 -10 -11 -11 -11
-1 -1 -1 -2 -3 -3 -3 -4 -4 -5 -7 -8 -8 -9 -10 -10 -11 -11 -11 -11 -11 -11 -11 -11 -10 -9 -8 -8 -7 -7 -7 -7 -7 -7 -8 -8 -9 -10 -10 -11 -11 -12 -12 -12
-2 -2 -2 -2 -3 -4 -5 -6 -7 -7 -9 -9 -9 -10 -10 -10 -12 -12 -11 -11 -11 -11 -11 -11 -11 -10 -9 -9 -8 -8 -8 -8 -8 -8 -9 -9 -9 -10 -10 -11 -11 -12 -12 -13
-3 -4 -4 -4 -5 -7 -8 -9 -10 -10 -10 -10 -10 -11 -11 -11 -11 -11 -11 -11 -11 -11 -12 -12 -11 -11 -11 -10 -10 -9 -9 -9 -9 -9 -9 -10 -10 -10 -11 -11 -11 -12 -12 -13
-6 -7 -7 -8 -7 -8 -10 -10 -10 -10 -11 -10 -11 -11 -11 -11 -11 -11 -11 -12 -12 -12 -12 -12 -12 -12 -12 -12 -11 -11 -11 -10 -11 -11 -10 -10 -10 -11 -11 -12 -12 -12 -13 -13
-10 -10 -10 -11 -11 -10 -10 -10 -10 -11 -11 -11 -11 -11 -11 -11 -11 -11 -11 -11 -12 -12 -13 -13 -13 -13 -13 -13 -12 -12 -12 -12 -12 -12 -12 -12 -12 -12 -12 -12 -12 -13 -13 -14
-11 -12 -12 -11 -11 -11 -11 -10 -10 -11 -11 -11 -11 -11 -11 -10 -10 -11 -11 -11 -12 -12 -13 -13 -13 -14 -14 -13 -13 -13 -13 -13 -13 -13 -13 -13 -13 -13 -13 -13 -13 -13 -14 -14
-11 -11 -11 -11 -11 -11 -11 -11 -10 -10 -10 -10 -10 -10 -10 -10 -10 -10 -11 -11 -11 -12 -12 -13 -13 -13 -14 -14 -14 -14 -14 -14 -14 -14 -14 -14 -14 -14 -14 -14 -14 -14 -14 -15
-11 -10 -11 -10 -10 -10 -10 -10 -9 -9 -10 -9 -9 -9 -9 -9 -9 -10 -10 -11 -11 -12 -12 -12 -13 -13 -13 -13 -14 -14 -14 -14 -14 -15 -15 -15 -15 -15 -15 -15 -15 -15 -15 -15
-10 -10 -10 -10 -10 -9 -9 -9 -9 -9 -9 -9 -9 -9 -9 -10 -10 -10 -10 -11 -11 -11 -12 -12 -12 -13 -13 -13 -13 -13 -14 -14 -14 -15 -15 -15 -15 -15 -15 -15 -16 -16 -16 -16
-9 -9 -9 -8 -8 -8 -8 -8 -8 -8 -8 -9 -9 -9 -9 -10 -10 -11 -11 -11 -11 -11 -11 -12 -12 -12 -13 -13 -13 -13 -13 -14 -14 -14 -14 -15 -15 -15 -15 -15 -16 -16 -16 -16
-8 -8 -8 -8 -8 -7 -7 -7 -8 -8 -9 -9 -10 -10 -10 -10 -10 -11 -11 -11 -11 -12 -12 -12 -13 -13 -13 -13 -13 -13 -13 -13 -14 -14 -14 -15 -15 -15 -15 -15 -16 -16 -16 -16

GFSNGP_925_temp_099.txt.gz
Temp
9 8 9 9 9 9 8 9 8 10 10 11 11 11 7 5 5 4 3 2 2 1 1 0 -0 -1 -1 -1 -1 -0 0 1 1 2 4 5 9 11 12 13 13 12 12 11
7 8 8 8 9 8 9 9 8 9 9 11 11 7 5 4 3 2 2 1 1 1 1 -0 -1 -1 -2 -2 -1 -1 -1 -0 0 1 1 3 2 7 4 9 9 10 10 9
7 8 8 8 8 9 9 9 9 8 9 10 6 5 4 3 2 2 1 1 0 0 -0 -1 -2 -2 -2 -3 -2 -2 -2 -2 -1 -0 0 1 2 1 2 0 5 4 4 5
6 7 6 7 7 7 6 7 6 6 7 8 6 2 2 1 1 1 1 -0 -0 -1 -1 -2 -3 -3 -2 -3 -3 -3 -3 -3 -2 -2 -1 -0 1 1 1 -1 -1 -0 0 1
6 6 8 7 5 5 5 6 3 3 4 2 2 2 1 1 -0 -1 -1 -1 -2 -2 -3 -3 -3 -3 -3 -3 -3 -4 -4 -4 -3 -3 -3 -2 -1 -1 -0 -1 -3 -3 -2 -2
6 5 6 5 5 5 5 6 3 2 2 3 2 5 1 -1 -1 -2 -2 -3 -3 -3 -3 -4 -4 -4 -4 -4 -4 -5 -5 -4 -4 -4 -4 -4 -3 -3 -2 -2 -3 -3 -3 -3
6 6 6 3 4 4 6 4 2 1 0 3 0 -0 -2 -2 -3 -3 -3 -3 -3 -3 -4 -4 -4 -5 -5 -5 -5 -6 -5 -5 -5 -5 -4 -4 -4 -4 -4 -4 -4 -4 -5 -5
6 6 6 3 4 4 2 1 1 -0 -1 -1 -2 -3 -4 -4 -5 -4 -4 -4 -4 -4 -4 -4 -4 -4 -5 -5 -6 -6 -6 -6 -6 -5 -5 -5 -4 -4 -4 -4 -4 -4 -5 -5
4 4 3 2 1 0 0 -0 -0 -1 -2 -3 -4 -4 -5 -5 -5 -6 -5 -5 -5 -4 -4 -5 -5 -5 -4 -5 -5 -5 -6 -6 -6 -6 -6 -5 -5 -5 -4 -4 -4 -4 -4 -4
4 3 2 1 0 -0 -1 -1 -2 -2 -3 -4 -5 -5 -6 -6 -6 -7 -7 -6 -6 -5 -5 -6 -6 -6 -5 -4 -4 -5 -5 -5 -6 -6 -6 -5 -5 -5 -4 -4 -4 -4 -3 -4
3 2 2 1 0 -0 -1 -2 -3 -3 -3 -4 -5 -5 -5 -6 -6 -7 -8 -8 -7 -7 -7 -7 -6 -6 -6 -5 -4 -4 -5 -5 -5 -6 -6 -6 -6 -5 -5 -5 -5 -4 -5 -4
3 2 2 1 0 -0 -1 -2 -3 -3 -4 -4 -5 -6 -6 -6 -7 -7 -8 -9 -9 -9 -9 -9 -8 -8 -7 -6 -5 -5 -4 -5 -6 -6 -6 -6 -6 -6 -7 -6 -6 -6 -6 -6
1 1 0 -0 -1 -1 -2 -3 -3 -4 -4 -4 -5 -6 -6 -7 -7 -7 -8 -9 -10 -11 -9 -8 -8 -7 -6 -6 -6 -6 -6 -6 -6 -7 -7 -7 -7 -7 -6 -8 -8 -8 -7 -7
1 1 -0 -0 -1 -1 -2 -3 -4 -4 -5 -5 -5 -6 -6 -7 -8 -8 -9 -9 -10 -11 -10 -9 -8 -8 -7 -7 -6 -6 -7 -7 -8 -8 -8 -8 -8 -8 -8 -8 -8 -9 -11 -10
1 1 1 -1 -1 -2 -2 -3 -3 -4 -5 -6 -6 -7 -7 -8 -9 -10 -10 -10 -10 -11 -10 -10 -9 -9 -8 -7 -7 -7 -7 -8 -8 -8 -8 -9 -9 -9 -9 -9 -9 -10 -10 -10
0 -0 -0 -1 -2 -2 -2 -3 -3 -4 -5 -6 -7 -8 -9 -10 -10 -11 -12 -11 -11 -12 -12 -11 -10 -10 -8 -8 -7 -7 -8 -8 -8 -8 -9 -9 -9 -9 -9 -10 -10 -11 -11 -11
-0 -0 -0 -1 -2 -2 -3 -3 -4 -5 -6 -7 -8 -9 -9 -10 -11 -12 -12 -12 -12 -11 -12 -11 -11 -10 -9 -9 -8 -9 -9 -9 -8 -9 -9 -9 -10 -10 -10 -10 -11 -11 -12 -12
0 0 1 -0 -2 -3 -4 -5 -6 -7 -8 -9 -10 -10 -10 -11 -12 -13 -12 -12 -12 -11 -12 -12 -11 -11 -10 -10 -10 -10 -10 -9 -9 -9 -10 -10 -10 -10 -10 -11 -11 -12 -13 -13
-1 -2 -2 -3 -4 -5 -7 -8 -9 -10 -10 -10 -10 -12 -12 -12 -12 -12 -11 -11 -11 -12 -13 -12 -12 -12 -12 -11 -11 -11 -11 -11 -10 -10 -10 -11 -11 -11 -11 -11 -12 -12 -13 -13
-5 -6 -6 -7 -7 -8 -10 -11 -10 -11 -11 -11 -11 -12 -12 -12 -11 -11 -11 -12 -12 -13 -13 -13 -13 -13 -13 -12 -12 -13 -12 -12 -12 -12 -12 -12 -12 -12 -12 -12 -13 -13 -13 -14
-8 -9 -10 -11 -12 -10 -10 -10 -10 -11 -11 -11 -10 -11 -11 -11 -11 -11 -11 -10 -12 -13 -13 -13 -13 -13 -13 -13 -13 -13 -14 -13 -13 -14 -14 -13 -13 -13 -13 -13 -13 -13 -14 -14
-11 -12 -12 -12 -12 -13 -12 -11 -10 -10 -11 -11 -11 -10 -11 -11 -11 -11 -11 -11 -12 -12 -13 -13 -13 -13 -14 -14 -14 -14 -14 -14 -14 -14 -14 -14 -14 -14 -14 -14 -14 -14 -14 -15
-11 -12 -12 -11 -11 -11 -11 -11 -11 -10 -10 -10 -10 -10 -10 -10 -10 -10 -10 -11 -12 -12 -12 -13 -13 -13 -13 -13 -14 -14 -14 -14 -15 -15 -15 -15 -15 -15 -15 -15 -15 -15 -15 -15
-12 -12 -11 -10 -10 -11 -11 -11 -10 -10 -10 -10 -10 -10 -10 -10 -10 -10 -10 -11 -11 -11 -12 -12 -13 -13 -13 -13 -13 -14 -14 -14 -14 -15 -15 -15 -15 -15 -15 -15 -15 -16 -15 -16
-11 -11 -11 -11 -9 -9 -9 -9 -9 -9 -9 -10 -10 -10 -10 -10 -10 -10 -11 -11 -11 -11 -11 -12 -12 -13 -13 -13 -13 -13 -13 -14 -14 -14 -14 -15 -15 -15 -15 -15 -16 -16 -16 -16
-9 -9 -9 -8 -8 -8 -9 -9 -8 -9 -9 -10 -10 -10 -10 -10 -10 -11 -11 -11 -11 -11 -12 -12 -12 -13 -13 -13 -14 -14 -14 -14 -14 -14 -14 -14 -14 -15 -15 -15 -15 -16 -16 -16
-9 -9 -9 -9 -8 -8 -8 -8 -9 -9 -9 -10 -10 -11 -11 -11 -11 -11 -11 -12 -12 -12 -13 -13 -14 -14 -14 -15 -15 -15 -15 -15 -15 -15 -15 -15 -15 -15 -15 -15 -15 -16 -16 -16

GFSNGP_925_temp_102.txt.gz
Temp
11 11 12 12 12 12 12 13 11 14 13 14 14 14 13 10 9 7 5 4 5 5 4 4 2 1 1 -1 -2 -1 -1 -0 0 1 2 2 6 7 10 13 13 12 12 12
11 11 11 11 12 12 12 12 12 13 13 14 12 11 8 7 6 5 4 3 4 4 3 2 1 -0 -0 -1 -2 -2 -2 -2 -1 -0 0 1 2 3 2 6 6 9 10 10
10 10 10 10 11 12 12 13 12 11 12 11 10 7 6 5 4 3 3 2 1 2 1 0 -1 -1 -1 -2 -2 -2 -3 -2 -2 -2 -1 -0 0 2 1 0 0 0 3 6
10 9 9 9 9 9 8 9 8 8 8 7 5 3 3 2 2 2 1 -0 -0 -1 -1 -1 -2 -2 -1 -1 -2 -2 -3 -3 -3 -3 -2 -2 -1 -1 0 0 -0 -0 -1 0
9 10 11 8 7 6 6 7 4 5 5 5 3 4 2 1 0 -1 -1 -1 -2 -2 -2 -2 -3 -2 -2 -2 -2 -2 -3 -3 -3 -4 -3 -3 -3 -2 -2 -2 -0 -3 -3 -2
9 9 9 7 7 8 5 7 4 3 3 4 4 6 2 -0 -1 -2 -2 -2 -2 -3 -3 -3 -3 -3 -3 -3 -3 -4 -4 -4 -4 -3 -4 -3 -3 -3 -3 -4 -4 -3 -3 -4
9 9 7 5 7 6 6 5 3 2 1 3 2 1 -1 -2 -2 -3 -2 -2 -3 -3 -3 -3 -3 -3 -3 -4 -4 -5 -4 -4 -4 -4 -3 -3 -3 -3 -3 -3 -4 -4 -5 -5
9 8 8 5 7 6 3 2 2 1 -0 -0 -1 -2 -2 -3 -3 -3 -3 -3 -3 -2 -2 -3 -3 -2 -3 -4 -4 -4 -5 -4 -4 -4 -4 -3 -3 -3 -3 -3 -3 -3 -4 -5
6 6 4 3 2 2 2 2 0 -0 -1 -2 -2 -3 -4 -4 -4 -4 -4 -2 -2 -2 -2 -3 -3 -3 -3 -2 -3 -3 -4 -4 -4 -4 -4 -4 -3 -3 -2 -2 -3 -3 -3 -3
6 4 4 2 2 1 0 -0 -1 -1 -2 -2 -3 -4 -4 -4 -4 -5 -5 -4 -3 -2 -3 -3 -3 -4 -3 -2 -1 -2 -2 -3 -3 -4 -4 -5 -4 -4 -4 -4 -3 -3 -3 -3
4 4 3 2 2 1 -1 -1 -2 -2 -2 -3 -3 -3 -3 -3 -4 -5 -5 -5 -5 -5 -4 -4 -4 -4 -4 -3 -2 -1 -2 -3 -3 -3 -3 -4 -6 -6 -5 -6 -5 -4 -5 -5
6 5 4 2 1 0 -1 -1 -2 -1 -2 -2 -3 -3 -4 -4 -5 -5 -6 -7 -7 -7 -7 -6 -6 -6 -6 -4 -4 -3 -3 -3 -4 -3 -3 -3 -3 -5 -8 -7 -7 -7 -7 -6
3 3 2 1 0 -0 -1 -2 -2 -1 -2 -2 -3 -3 -4 -4 -5 -6 -6 -7 -8 -8 -8 -8 -8 -8 -8 -7 -6 -5 -5 -4 -4 -4 -4 -4 -5 -5 -4 -6 -7 -9 -8 -8
3 2 1 1 -0 -0 -0 -1 -1 -2 -2 -2 -2 -3 -3 -4 -5 -5 -6 -7 -8 -8 -9 -9 -9 -9 -8 -8 -7 -6 -6 -6 -5 -6 -6 -6 -6 -6 -6 -6 -6 -7 -9 -10
3 4 3 2 1 0 -1 -1 -1 -1 -2 -3 -3 -3 -4 -5 -6 -7 -7 -7 -7 -8 -10 -10 -10 -10 -9 -8 -7 -7 -6 -6 -6 -6 -6 -7 -6 -6 -6 -6 -6 -7 -7 -8
2 3 3 2 1 1 1 0 -0 -1 -2 -3 -4 -5 -5 -6 -7 -8 -9 -10 -9 -10 -11 -12 -11 -10 -9 -9 -7 -6 -6 -8 -7 -6 -6 -6 -6 -6 -6 -6 -7 -7 -8 -9
2 1 2 1 1 1 1 0 -1 -2 -3 -4 -5 -6 -6 -7 -8 -9 -11 -12 -12 -12 -12 -12 -12 -11 -10 -10 -8 -7 -6 -6 -7 -6 -6 -7 -7 -7 -7 -7 -7 -8 -9 -12
3 3 3 2 1 -0 -1 -2 -3 -4 -5 -6 -8 -9 -10 -9 -10 -11 -12 -12 -12 -12 -12 -12 -12 -12 -11 -11 -9 -8 -7 -7 -7 -7 -7 -7 -8 -7 -8 -8 -8 -8 -9 -11
2 2 1 1 -1 -2 -3 -4 -6 -8 -9 -10 -10 -10 -11 -11 -11 -12 -12 -11 -10 -9 -12 -13 -12 -11 -11 -12 -10 -9 -9 -9 -8 -8 -8 -9 -8 -8 -9 -9 -9 -10 -10 -10
-1 -1 -2 -3 -4 -4 -6 -8 -9 -10 -11 -11 -11 -11 -11 -12 -12 -12 -11 -11 -12 -12 -13 -13 -12 -11 -12 -12 -12 -10 -10 -10 -10 -10 -10 -10 -10 -10 -10 -10 -11 -10 -11 -11
-4 -5 -7 -8 -9 -9 -10 -10 -11 -11 -11 -11 -10 -10 -10 -12 -11 -11 -9 -7 -11 -12 -13 -13 -12 -11 -12 -12 -11 -11 -11 -11 -11 -11 -11 -11 -11 -11 -11 -11 -11 -11 -11 -12
-7 -8 -10 -10 -10 -11 -11 -10 -10 -11 -12 -11 -10 -11 -11 -11 -11 -11 -10 -9 -10 -11 -11 -11 -12 -13 -13 -13 -12 -12 -12 -12 -12 -12 -12 -12 -12 -12 -12 -12 -12 -12 -12 -12
-8 -9 -10 -10 -10 -10 -11 -11 -11 -11 -10 -10 -11 -10 -8 -8 -8 -7 -7 -10 -10 -11 -11 -11 -12 -12 -13 -13 -12 -12 -12 -12 -12 -12 -12 -13 -13 -13 -13 -13 -13 -13 -13 -13
-9 -8 -9 -10 -11 -9 -9 -10 -10 -10 -10 -10 -10 -10 -9 -8 -8 -9 -9 -10 -11 -11 -11 -12 -12 -13 -13 -13 -12 -12 -12 -12 -12 -12 -13 -13 -13 -13 -13 -14 -14 -14 -14 -14
-8 -9 -9 -8 -6 -6 -7 -8 -8 -9 -9 -8 -9 -10 -10 -9 -9 -9 -10 -10 -11 -12 -11 -12 -12 -13 -13 -13 -13 -13 -13 -13 -13 -13 -13 -13 -13 -13 -13 -14 -14 -14 -14 -15
-7 -6 -6 -5 -5 -6 -6 -6 -6 -6 -7 -7 -8 -9 -10 -10 -10 -10 -10 -11 -11 -12 -11 -12 -13 -13 -13 -13 -14 -14 -14 -14 -14 -14 -14 -14 -13 -13 -14 -14 -14 -14 -14 -15
-6 -6 -6 -6 -6 -6 -6 -6 -6 -7 -8 -7 -8 -10 -10 -10 -11 -11 -11 -11 -12 -12 -13 -13 -14 -15 -15 -15 -14 -15 -15 -15 -16 -16 -16 -15 -15 -15 -15 -15 -15 -15 -15 -15

GFSNGP_925_temp_105.txt.gz
Temp
15 14 15 15 15 15 15 15 14 16 16 16 15 14 13 12 11 10 8 7 6 6 6 5 4 3 3 1 0 -2 -2 -2 -1 -1 -0 0 1 2 5 6 10 11 14 15
13 14 14 13 15 15 15 15 15 15 15 14 13 13 10 8 8 7 6 5 5 4 4 3 2 1 1 1 0 -1 -2 -2 -2 -2 -2 -1 -0 0 3 2 3 4 6 7
13 12 13 13 14 15 15 16 15 13 13 12 9 6 5 6 5 4 4 3 2 2 2 1 0 1 1 0 -0 -1 -2 -2 -2 -3 -2 -2 -2 -1 -0 -0 2 1 0 1
13 12 11 11 12 11 11 12 11 11 10 9 6 4 4 3 3 2 2 1 1 0 0 -1 -1 -1 -0 -0 -1 -2 -2 -3 -3 -3 -2 -2 -3 -3 -3 -2 -1 -1 -1 -1
11 12 13 11 10 7 7 8 6 7 8 8 5 5 2 2 1 0 -0 -1 -1 -1 -1 -2 -2 -2 -1 -2 -2 -2 -3 -3 -3 -2 -2 -2 -2 -3 -4 -4 -4 -4 -2 -2
12 11 11 8 10 10 8 9 6 5 5 6 6 6 2 1 -0 -1 -1 -2 -1 -2 -3 -2 -3 -2 -2 -2 -3 -3 -3 -3 -3 -3 -2 -2 -3 -3 -3 -4 -4 -5 -5 -4
11 12 8 7 9 9 7 6 4 3 2 4 4 2 -0 -1 -2 -2 -2 -2 -2 -2 -2 -2 -2 -2 -2 -3 -3 -3 -3 -3 -3 -3 -3 -3 -2 -2 -2 -2 -3 -4 -4 -5
12 11 9 7 8 7 4 4 3 2 1 1 0 -0 -1 -2 -2 -2 -2 -2 -1 -2 -2 -1 -1 -1 -1 -2 -2 -3 -3 -3 -3 -4 -3 -3 -3 -3 -2 -2 -2 -2 -3 -3
7 7 4 5 3 3 4 3 1 1 0 -0 -1 -2 -2 -3 -3 -3 -3 -2 -1 -1 -1 -1 -2 -1 -1 -0 0 -1 -1 -2 -3 -3 -4 -4 -4 -4 -4 -2 -3 -3 -3 -4
7 5 4 3 3 3 3 2 1 1 -0 -1 -2 -3 -3 -3 -3 -4 -4 -2 -1 -1 -1 -2 -2 -2 -1 -1 1 0 -1 -1 -1 -2 -3 -5 -5 -5 -5 -5 -4 -4 -5 -4
5 4 5 4 3 2 1 0 -1 -1 -0 -1 -1 -2 -1 -2 -3 -4 -4 -4 -3 -3 -3 -3 -3 -3 -3 -2 -1 -0 -1 -1 -1 -2 -2 -3 -5 -6 -6 -7 -6 -6 -6 -7
8 7 6 3 2 2 1 0 0 0 -0 -1 -1 -2 -2 -3 -3 -4 -5 -5 -5 -5 -5 -5 -5 -6 -5 -4 -3 -2 -2 -2 -3 -2 -2 -2 -3 -5 -7 -6 -7 -7 -7 -7
5 5 4 3 2 2 1 0 1 1 1 0 -1 -1 -2 -3 -3 -4 -4 -5 -6 -7 -7 -7 -7 -8 -7 -6 -5 -4 -4 -3 -3 -3 -3 -3 -3 -3 -3 -6 -6 -6 -8 -8
5 4 2 3 1 2 2 1 0 0 0 0 -0 -1 -1 -1 -2 -3 -4 -5 -6 -7 -8 -8 -8 -9 -8 -7 -6 -6 -5 -5 -5 -5 -5 -4 -4 -4 -4 -4 -4 -5 -7 -8
4 5 5 4 3 3 2 1 1 1 0 -0 -0 -0 -1 -2 -3 -4 -4 -4 -5 -7 -8 -9 -10 -10 -9 -8 -6 -5 -6 -6 -5 -5 -5 -5 -4 -4 -4 -5 -5 -5 -6 -7
5 5 4 3 3 3 2 2 2 1 0 -1 -1 -2 -3 -3 -5 -6 -7 -8 -7 -9 -10 -11 -10 -11 -10 -9 -7 -5 -4 -6 -5 -4 -4 -4 -4 -4 -4 -5 -5 -6 -7 -9
3 3 3 3 3 3 3 2 2 1 -1 -1 -2 -3 -3 -4 -5 -8 -9 -10 -11 -11 -11 -11 -11 -11 -11 -10 -8 -6 -5 -5 -5 -5 -5 -5 -5 -5 -5 -5 -6 -6 -7 -10
5 5 4 4 3 3 2 1 0 -1 -2 -3 -6 -7 -8 -8 -8 -10 -10 -10 -10 -10 -11 -12 -11 -10 -10 -11 -9 -7 -6 -6 -6 -6 -6 -6 -7 -6 -6 -7 -7 -7 -8 -9
4 4 3 3 2 1 -0 -1 -3 -5 -7 -8 -8 -8 -9 -9 -9 -10 -9 -8 -7 -7 -11 -11 -11 -10 -10 -10 -10 -7 -7 -8 -7 -7 -7 -7 -7 -7 -8 -8 -8 -8 -9 -9
2 2 2 1 -0 -1 -3 -6 -7 -7 -8 -9 -10 -9 -9 -10 -10 -10 -9 -9 -10 -10 -11 -11 -10 -9 -9 -10 -9 -8 -9 -8 -8 -8 -9 -9 -9 -9 -9 -9 -9 -9 -9 -10
-1 -1 -2 -3 -5 -6 -7 -7 -8 -9 -9 -9 -8 -8 -8 -10 -10 -10 -8 -5 -9 -11 -11 -11 -10 -10 -10 -10 -9 -9 -9 -9 -9 -10 -10 -10 -10 -10 -10 -10 -10 -10 -10 -10
-4 -5 -6 -7 -7 -8 -8 -8 -9 -10 -10 -9 -10 -10 -10 -9 -10 -9 -8 -8 -8 -10 -10 -9 -10 -12 -12 -11 -10 -10 -10 -10 -10 -10 -10 -11 -11 -11 -11 -11 -11 -11 -11 -11
-6 -6 -7 -8 -7 -7 -9 -9 -10 -9 -10 -10 -10 -9 -7 -6 -5 -5 -5 -9 -8 -9 -9 -9 -11 -12 -12 -12 -10 -10 -10 -11 -11 -11 -11 -11 -11 -12 -12 -12 -12 -12 -12 -12
-6 -6 -7 -7 -9 -8 -8 -9 -8 -9 -9 -9 -9 -9 -8 -6 -6 -7 -7 -9 -9 -10 -10 -10 -11 -12 -12 -12 -11 -11 -11 -11 -11 -11 -11 -11 -11 -12 -12 -12 -12 -12 -13 -13
-6 -6 -7 -7 -5 -4 -6 -6 -6 -7 -7 -6 -7 -8 -8 -7 -8 -7 -8 -9 -10 -10 -9 -11 -12 -12 -12 -11 -12 -12 -12 -12 -12 -13 -13 -12 -12 -12 -12 -12 -13 -13 -13 -13
-5 -5 -5 -3 -2 -4 -4 -5 -4 -5 -5 -5 -6 -7 -8 -8 -8 -8 -9 -10 -10 -10 -10 -11 -12 -13 -12 -13 -13 -13 -13 -13 -14 -14 -15 -14 -14 -14 -14 -14 -13 -13 -13 -14
-4 -4 -3 -3 -3 -3 -4 -3 -4 -5 -5 -5 -6 -8 -8 -9 -9 -9 -10 -10 -10 -11 -11 -12 -12 -13 -14 -14 -14 -14 -15 -15 -16 -16 -16 -16 -16 -16 -17 -17 -17 -16 -16 -15

GFSNGP_925_temp_108.txt.gz
Temp
16 16 16 16 16 17 16 16 14 15 16 13 13 12 11 11 10 9 7 6 5 5 4 3 2 2 2 1 -0 -1 -1 -2 -2 -2 -2 -2 -2 -1 -1 1 3 4 5 9
13 15 15 15 16 16 16 16 16 16 15 12 10 9 8 8 7 6 5 4 4 3 2 1 1 1 1 0 -1 -2 -2 -2 -2 -2 -2 -2 -3 -3 -2 -2 -0 1 1 2
12 15 14 13 14 15 15 16 15 14 11 11 7 6 5 5 5 4 3 2 2 1 1 -0 -1 -1 -1 -1 -2 -2 -2 -2 -2 -2 -2 -2 -3 -3 -4 -4 -3 -2 -1 0
13 13 11 12 12 12 11 10 11 11 10 8 6 4 3 3 3 2 1 1 0 -0 -1 -2 -2 -2 -2 -2 -2 -2 -2 -2 -2 -2 -2 -2 -2 -3 -4 -4 -4 -4 -4 -3
11 12 13 12 11 7 8 7 7 8 8 7 5 3 1 1 1 -0 -0 -1 -2 -2 -2 -2 -2 -2 -2 -2 -2 -2 -3 -3 -3 -2 -2 -2 -2 -2 -3 -3 -4 -5 -5 -5
12 11 12 9 11 11 8 8 6 5 5 6 5 5 1 -0 -0 -1 -1 -1 -2 -2 -2 -2 -2 -2 -2 -2 -2 -3 -3 -3 -3 -3 -3 -3 -2 -2 -2 -2 -3 -4 -4 -5
12 12 8 8 10 10 8 6 3 3 2 4 3 1 -1 -1 -1 -2 -1 -2 -2 -2 -2 -2 -2 -2 -2 -2 -2 -2 -3 -3 -4 -4 -3 -4 -4 -3 -3 -3 -3 -4 -4 -4
12 12 10 7 9 8 4 4 2 2 2 0 -0 -1 -1 -2 -2 -2 -2 -2 -2 -2 -2 -2 -1 -0 -0 -0 -0 -1 -2 -2 -3 -4 -4 -4 -5 -5 -4 -4 -4 -4 -4 -5
7 6 5 5 3 3 4 3 2 1 1 0 -1 -1 -2 -3 -3 -3 -3 -2 -2 -1 -1 -1 -1 -1 -1 -0 0 -0 -1 -1 -2 -3 -4 -5 -5 -6 -6 -5 -5 -5 -5 -5
7 5 4 4 3 3 3 2 2 1 0 -1 -2 -2 -3 -3 -3 -4 -3 -2 -1 -1 -2 -3 -3 -3 -2 -2 -0 -0 -2 -1 -1 -2 -4 -5 -5 -6 -6 -6 -6 -6 -7 -7
5 5 4 4 3 2 1 1 1 1 -0 -1 -1 -2 -2 -2 -3 -4 -4 -3 -3 -4 -4 -4 -5 -5 -4 -3 -2 -2 -2 -2 -2 -2 -2 -4 -6 -6 -7 -7 -7 -7 -7 -7
8 6 6 3 3 2 1 0 1 1 0 -0 -1 -2 -2 -3 -3 -4 -5 -5 -5 -6 -6 -6 -7 -7 -6 -5 -4 -4 -3 -3 -4 -3 -3 -3 -3 -5 -7 -6 -6 -7 -7 -7
6 6 4 3 3 3 2 2 2 2 1 0 -0 -1 -2 -3 -3 -3 -4 -6 -6 -7 -8 -8 -9 -9 -8 -7 -5 -5 -5 -5 -4 -4 -4 -4 -4 -4 -4 -6 -6 -7 -7 -7
5 4 2 3 2 2 2 2 2 1 1 1 0 -0 -1 -2 -2 -3 -4 -5 -6 -8 -9 -9 -9 -9 -8 -6 -6 -5 -5 -5 -5 -5 -5 -4 -4 -4 -4 -5 -5 -6 -7 -8
5 6 4 4 4 3 2 2 2 1 1 1 0 0 -1 -2 -3 -4 -4 -4 -6 -8 -9 -10 -10 -10 -9 -7 -6 -5 -6 -5 -5 -4 -4 -4 -4 -4 -4 -5 -5 -7 -8 -8
5 5 5 4 4 3 3 2 2 1 1 0 -1 -1 -2 -3 -5 -6 -7 -8 -8 -9 -10 -11 -10 -10 -9 -8 -6 -5 -5 -5 -5 -5 -5 -5 -5 -5 -5 -6 -6 -7 -9 -9
4 4 4 4 3 3 3 3 2 1 0 -1 -1 -2 -3 -4 -6 -8 -9 -10 -10 -10 -11 -11 -10 -10 -9 -8 -7 -6 -6 -6 -6 -6 -6 -6 -6 -6 -6 -7 -7 -7 -9 -9
6 5 5 4 3 3 3 2 1 0 -1 -4 -5 -5 -6 -7 -9 -10 -9 -9 -9 -10 -11 -10 -10 -9 -9 -9 -8 -7 -7 -7 -7 -7 -7 -8 -7 -7 -8 -8 -8 -8 -8 -9
5 4 4 3 3 2 1 -0 -4 -6 -6 -6 -7 -8 -9 -9 -9 -9 -9 -7 -7 -8 -10 -10 -9 -9 -9 -9 -8 -8 -8 -8 -8 -8 -9 -9 -9 -9 -9 -9 -9 -9 -9 -9
4 3 2 2 1 -1 -4 -6 -6 -7 -7 -8 -9 -9 -10 -10 -10 -9 -9 -9 -9 -10 -10 -10 -9 -8 -9 -9 -9 -9 -9 -9 -9 -9 -9 -10 -10 -10 -10 -10 -10 -10 -10 -10
0 -1 -2 -4 -5 -6 -6 -6 -8 -8 -9 -8 -8 -8 -9 -9 -9 -8 -7 -7 -9 -9 -9 -10 -10 -10 -10 -10 -9 -9 -10 -10 -10 -10 -10 -10 -10 -11 -11 -11 -11 -11 -11 -11
-2 -3 -5 -6 -6 -7 -8 -8 -8 -9 -8 -8 -9 -9 -9 -9 -8 -7 -7 -7 -9 -9 -9 -8 -10 -10 -11 -11 -11 -10 -10 -10 -10 -10 -10 -10 -11 -11 -11 -11 -12 -12 -12 -12
-4 -5 -6 -6 -7 -7 -8 -9 -9 -9 -9 -9 -9 -8 -7 -6 -5 -5 -7 -8 -8 -9 -9 -10 -10 -10 -11 -11 -11 -11 -11 -11 -11 -11 -11 -12 -12 -11 -11 -12 -12 -12 -12 -12
-5 -6 -7 -6 -8 -8 -8 -9 -8 -9 -9 -9 -8 -8 -7 -6 -6 -6 -7 -8 -9 -9 -9 -10 -11 -11 -11 -11 -11 -12 -12 -12 -12 -13 -13 -13 -13 -13 -13 -13 -12 -12 -12 -13
-6 -6 -7 -7 -5 -5 -6 -6 -7 -7 -7 -6 -7 -8 -7 -7 -7 -8 -8 -9 -9 -10 -10 -10 -12 -12 -12 -12 -13 -13 -13 -13 -14 -14 -15 -15 -15 -15 -15 -16 -16 -15 -15 -13
-5 -5 -5 -4 -3 -4 -5 -5 -5 -5 -5 -6 -6 -7 -7 -8 -8 -8 -9 -9 -9 -10 -10 -11 -12 -13 -13 -14 -14 -14 -15 -15 -16 -16 -16 -17 -17 -17 -17 -18 -18 -18 -17 -17
-3 -4 -3 -2 -3 -3 -4 -4 -4 -4 -4 -5 -6 -7 -8 -8 -9 -9 -9 -10 -10 -11 -11 -12 -13 -13 -14 -15 -15 -16 -16 -17 -17 -18 -18 -18 -19 -20 -20 -20 -20 -20 -19 -19